Theta_e
340 338 336 334 334 332 321 317 325 329 328 329 329 327 326 324 323 323 322 321 321 322 320 319 318 317 316 316 315 315 313 314 314 313 313 313 313 313 312 312 312 314 314
337 336 336 334 332 331 320 316 319 326 327 328 325 325 323 322 322 322 321 320 320 319 319 319 318 316 316 315 314 314 313 312 311 313 312 312 311 312 312 311 313 312 312
336 336 335 333 330 329 320 317 319 323 324 324 322 322 321 321 320 320 319 319 319 318 318 318 317 316 315 315 314 312 311 311 312 312 311 310 311 311 311 312 312 313 312
337 337 334 331 329 327 325 318 321 321 320 320 319 318 319 319 319 319 320 319 320 318 316 315 314 314 315 314 313 311 311 312 311 310 309 309 310 310 310 310 312 312 311
339 337 334 329 326 323 323 318 319 317 317 317 315 315 316 317 317 318 318 319 319 317 315 313 312 312 313 313 312 312 311 311 310 309 309 309 309 309 309 311 311 311 310
338 336 332 329 326 325 320 317 318 319 317 314 314 312 312 314 315 316 317 317 317 316 314 313 312 311 311 312 312 312 311 310 310 309 308 307 307 307 308 310 310 310 309
332 332 329 328 325 322 320 317 317 316 314 314 311 308 308 311 314 313 313 314 314 314 315 313 311 311 311 311 312 312 311 309 309 307 306 305 305 306 305 306 306 307 307
331 328 329 327 325 321 318 318 317 315 314 314 314 307 306 305 307 310 313 315 314 313 311 311 311 312 312 312 311 311 310 307 306 305 305 303 305 304 305 305 305 305 305
330 330 329 328 324 323 321 318 316 315 313 310 312 310 306 308 301 303 306 312 313 313 311 309 309 310 310 310 310 309 306 306 305 305 303 303 304 303 304 304 303 303 304
327 328 328 326 325 321 318 316 314 314 312 311 309 312 310 305 306 302 300 303 308 310 310 309 308 308 309 309 307 306 304 303 303 304 303 302 303 303 302 302 304 303 303
324 324 326 325 324 322 319 316 315 314 313 312 312 307 307 307 306 303 302 298 300 303 307 309 308 306 306 306 305 303 303 302 302 303 302 302 302 302 302 302 303 302 301
320 322 324 324 323 321 320 319 315 314 313 312 311 309 309 308 305 305 304 300 300 297 300 305 307 306 304 304 303 302 301 301 301 301 301 301 301 301 301 301 300 300 301
316 317 321 322 322 321 320 316 315 314 313 312 311 310 308 308 307 306 305 302 300 294 295 298 302 303 302 302 302 301 300 300 299 300 299 300 299 300 300 299 300 299 298
317 317 317 318 320 319 318 316 315 314 313 313 312 311 308 307 306 305 304 301 298 296 293 293 297 298 299 300 300 300 299 298 298 298 297 297 296 297 297 298 296 296 296
315 315 313 317 318 316 317 315 315 313 312 312 312 309 307 305 305 305 303 301 300 297 297 292 293 295 297 298 299 299 298 296 296 295 295 295 294 294 294 294 294 293 293
312 314 315 316 316 316 316 316 314 313 312 311 311 309 307 305 304 304 302 301 300 299 297 292 294 294 295 297 296 297 296 295 293 292 293 292 292 292 292 292 291 291 291
308 311 314 314 313 314 315 314 314 314 312 310 311 309 308 305 303 302 302 301 300 300 297 292 292 293 294 294 294 294 293 292 291 291 290 290 290 289 289 289 289 289 289
303 304 307 310 313 313 313 314 314 314 312 311 310 309 307 304 303 302 302 301 300 300 297 291 291 292 293 293 292 292 291 291 290 289 289 288 288 287 286 286 286 285 286
299 301 302 304 308 311 312 311 313 313 313 312 310 309 307 304 303 302 302 300 299 298 296 292 291 292 292 291 290 289 289 289 288 287 287 287 286 285 284 284 283 282 282
295 297 297 299 302 304 308 312 312 312 312 312 310 309 308 305 304 301 301 300 297 295 293 292 291 290 290 289 288 287 287 287 287 286 286 285 285 284 283 283 282 281 280
294 294 295 296 297 299 301 305 310 310 310 311 310 309 307 306 304 302 301 299 296 294 293 291 290 289 289 288 287 287 286 286 285 285 285 284 284 283 282 282 281 280 280
292 293 294 295 296 297 298 301 304 309 309 309 308 308 307 305 304 302 302 299 297 294 292 292 291 290 289 288 287 286 285 285 284 284 284 283 283 282 281 281 280 280 279
290 290 291 292 293 295 296 298 301 303 308 309 308 307 306 305 303 301 301 299 298 298 301 293 290 290 289 288 287 286 285 285 284 283 283 282 282 281 280 280 280 280 279
288 289 290 290 291 293 295 297 299 301 302 308 308 307 306 303 302 301 299 296 295 295 294 295 294 291 289 288 287 286 285 285 283 282 283 282 281 281 281 281 280 279 279
288 289 289 290 290 292 294 295 297 300 301 304 307 307 306 304 302 302 298 295 294 293 292 294 292 290 289 288 287 286 285 284 283 283 283 282 282 281 281 281 280 279 279
289 289 289 289 290 290 293 293 295 296 300 302 305 306 307 305 303 301 297 295 292 291 291 290 290 289 288 287 286 286 284 285 283 283 282 283 281 281 281 281 281 280 280
Wind_Speed
36 37 38 36 36 38 38 34 31 33 36 38 32 29 28 24 23 20 20 25 25 24 20 20 19 19 19 19 19 20 20 20 21 21 22 22 22 22 21 20 20 21 21
34 34 37 37 34 37 36 38 37 38 36 36 30 28 27 27 24 24 24 24 24 25 23 21 20 18 18 20 19 18 20 20 20 20 21 22 21 21 22 23 21 20 20
36 42 39 39 36 36 31 33 30 28 32 32 25 26 25 26 25 25 26 25 23 25 26 22 21 20 19 20 20 19 18 18 21 21 21 20 21 21 21 23 23 22 23
41 40 39 35 36 32 32 29 22 28 24 22 22 23 26 25 26 26 24 26 26 28 24 23 21 20 20 19 20 19 19 20 20 21 21 20 21 22 21 22 22 23 22
41 42 41 33 30 28 38 26 21 14 19 21 11 17 17 23 24 26 26 26 27 26 24 23 22 21 20 20 19 20 20 21 19 21 21 21 22 22 22 22 23 23 23
41 41 35 31 32 34 36 35 33 30 24 21 27 18 14 24 19 22 25 25 26 25 24 26 23 21 21 21 20 20 21 21 21 20 21 20 20 22 22 22 23 24 24
34 34 32 33 33 35 39 44 36 35 29 31 25 15 13 20 28 22 23 25 27 25 25 25 23 24 23 21 21 21 21 19 21 18 18 21 20 20 20 20 19 20 21
30 29 31 32 34 31 28 33 36 32 23 42 24 22 4 2 16 27 30 34 34 32 29 25 25 25 24 23 23 22 21 19 21 19 18 18 20 19 19 20 20 20 20
28 33 31 36 35 37 37 41 42 37 26 36 36 16 5 4 6 11 25 35 37 37 36 31 26 24 26 24 24 23 22 20 20 19 19 19 19 19 20 21 19 19 19
17 26 28 29 33 36 36 40 42 38 31 34 28 24 22 18 5 3 8 25 34 39 39 36 29 28 26 25 25 26 26 21 23 19 19 19 19 19 19 19 21 21 20
14 15 18 27 32 36 35 39 39 39 36 36 29 23 18 19 19 4 4 6 18 27 37 39 35 28 26 25 26 26 24 25 24 21 20 20 20 19 18 18 20 20 19
19 14 19 28 29 33 34 37 41 41 41 44 39 32 30 24 19 13 6 11 18 15 25 33 34 34 32 27 26 29 28 28 25 22 21 22 20 20 19 20 19 18 19
18 19 20 26 31 34 36 39 42 44 44 41 43 38 36 34 34 26 18 17 9 8 9 24 31 33 34 33 26 31 30 29 27 24 22 22 21 21 20 20 21 20 18
20 23 17 25 26 25 30 35 35 38 43 42 43 40 37 33 35 31 25 24 5 4 4 7 28 30 32 33 29 35 32 31 27 26 23 21 21 19 20 20 19 20 18
24 19 24 27 33 27 26 31 33 36 33 39 36 36 38 33 36 36 36 44 27 6 6 11 10 29 32 31 34 30 32 32 28 24 24 24 22 20 20 19 18 19 19
16 17 19 25 28 25 28 31 30 34 33 36 37 40 38 35 36 40 42 41 35 19 6 10 13 25 27 27 32 29 34 33 30 24 25 23 22 20 20 20 19 18 19
8 8 15 20 24 25 28 33 36 35 36 32 32 36 38 38 36 34 40 40 36 30 15 13 18 26 26 28 29 33 36 29 27 25 24 23 23 21 20 19 19 19 19
10 10 14 16 20 22 26 30 34 36 40 41 40 35 34 36 35 40 40 39 37 37 31 27 31 33 32 29 31 34 30 25 26 25 25 24 23 21 22 20 20 19 18
12 13 13 15 18 19 25 30 33 37 41 41 42 41 41 41 39 39 38 37 36 36 38 31 25 37 35 34 31 31 28 27 29 25 25 23 22 20 20 19 19 18 18
12 14 16 17 20 22 23 28 34 35 36 38 39 43 44 45 42 41 41 41 38 38 39 39 38 37 41 38 35 33 30 31 31 26 23 22 21 19 18 17 17 18 18
13 15 16 17 20 23 24 24 30 33 34 36 38 41 43 50 47 47 42 40 40 36 37 41 34 39 38 40 37 35 30 30 28 30 27 28 25 20 18 17 16 16 16
15 16 18 18 20 21 26 28 28 30 35 35 35 40 37 48 50 54 52 54 57 50 41 40 35 36 41 47 43 42 38 36 24 25 30 25 24 22 20 19 17 17 17
14 14 15 16 21 22 24 30 30 30 28 31 33 35 36 42 47 48 51 57 61 63 69 61 49 49 49 52 51 44 40 38 21 37 32 26 23 20 17 19 19 19 19
14 14 17 18 21 24 24 25 30 30 28 28 31 36 36 34 45 43 41 44 45 52 58 55 65 60 53 54 55 54 49 33 28 34 29 21 24 22 19 17 19 19 19
17 18 20 19 21 24 22 20 23 28 27 25 28 33 36 35 44 46 44 43 37 37 38 42 45 48 51 53 52 47 40 36 31 32 24 27 23 22 18 19 18 18 18
17 19 20 19 21 22 21 18 18 20 23 24 29 31 38 37 43 54 46 44 35 36 40 36 37 42 48 49 55 55 54 40 36 21 26 19 30 24 11 17 20 20 16
Wind_Direction
202 203 206 203 203 203 198 189 186 182 186 189 184 178 173 166 162 156 158 158 154 146 142 138 135 132 129 126 122 121 117 114 109 107 106 103 101 98 97 92 94 88 82
207 204 205 209 204 205 199 199 197 189 187 186 180 177 175 165 162 158 157 159 159 153 144 141 137 135 134 131 127 123 119 116 115 110 107 105 103 99 96 94 91 87 88
207 214 214 213 208 206 195 199 198 196 188 182 177 174 173 164 162 160 157 160 160 155 148 145 142 140 138 135 129 125 122 122 118 114 108 105 103 100 99 91 92 90 87
217 220 218 214 210 202 198 190 195 189 183 177 169 175 171 163 164 161 158 159 159 153 152 150 146 142 140 138 133 130 124 120 117 116 111 107 105 101 100 94 96 91 87
225 218 216 209 207 198 202 179 178 182 165 166 166 169 171 158 165 162 160 161 161 157 152 154 150 147 144 140 137 133 129 124 121 118 114 111 107 104 102 96 97 95 92
224 219 212 206 204 200 190 185 185 189 183 169 164 164 168 159 166 165 162 162 160 160 158 154 151 149 148 146 142 138 134 129 124 120 117 115 112 110 108 100 97 94 92
223 215 206 203 200 195 193 187 181 175 166 169 149 131 147 170 165 169 164 163 159 156 161 159 155 151 152 151 146 143 139 133 127 124 123 118 113 115 115 113 105 96 93
222 210 209 209 208 195 192 191 183 170 182 184 175 143 166 178 161 168 171 167 168 165 161 158 157 153 151 153 149 145 142 139 130 129 125 119 115 115 111 114 110 102 99
230 228 218 217 214 212 204 197 185 181 185 184 182 161 143 193 152 169 167 168 167 169 168 161 159 155 154 152 151 148 142 141 134 132 127 124 119 120 117 112 111 107 105
235 224 215 218 219 208 200 191 191 189 185 181 179 190 185 143 149 176 173 167 168 167 168 165 161 159 156 155 154 156 156 146 137 136 133 128 124 120 121 117 115 111 107
254 254 247 232 220 214 200 196 192 192 189 178 191 178 164 167 182 164 152 158 163 165 167 168 166 160 159 159 156 160 165 154 141 142 139 131 127 125 126 121 115 111 110
261 257 245 236 229 213 214 210 199 192 185 191 193 192 185 186 180 169 153 181 157 179 172 164 167 171 167 162 162 162 163 156 148 151 140 135 132 129 131 127 121 120 118
251 259 239 240 230 223 218 199 194 196 195 192 190 190 188 186 188 170 161 174 169 156 173 166 167 171 169 170 163 162 164 161 153 151 149 139 136 134 131 127 125 121 115
258 257 241 246 235 222 216 203 199 201 197 199 199 197 193 187 183 172 171 161 139 164 157 152 175 171 169 171 163 167 162 163 162 150 150 148 142 138 136 130 128 125 124
260 255 252 241 242 223 214 212 203 205 206 200 198 195 193 185 179 175 167 166 170 161 187 183 162 180 172 171 170 167 160 162 159 156 152 149 141 139 135 133 131 129 126
269 257 243 241 236 228 211 210 211 215 210 202 198 198 192 188 184 178 172 172 173 162 156 171 191 174 167 161 164 159 157 158 156 158 160 150 145 140 137 134 132 129 126
293 282 270 250 242 230 217 208 207 209 212 210 206 203 198 189 182 174 173 175 164 162 143 145 177 168 164 156 157 155 158 150 150 155 157 151 149 143 138 140 135 132 129
323 310 286 272 262 242 231 222 209 205 203 201 207 204 195 188 184 177 175 175 172 169 159 148 161 162 164 162 155 151 148 149 149 160 159 156 148 143 142 143 139 134 132
325 308 299 296 274 269 244 236 222 213 209 208 201 203 197 189 186 183 182 178 175 165 161 154 156 164 159 157 152 149 147 144 148 155 156 154 147 146 146 143 139 136 134
324 313 300 287 276 276 262 240 234 227 216 211 206 199 198 195 191 184 180 177 171 159 154 152 159 160 156 158 157 147 142 148 149 154 153 152 150 150 147 144 140 135 133
324 313 305 298 284 276 274 263 239 233 221 208 207 203 200 201 197 190 183 176 169 157 155 152 165 162 162 160 164 158 152 151 153 157 157 156 154 156 153 145 143 140 136
325 321 316 306 296 285 275 268 264 233 222 208 202 201 201 206 199 193 189 181 176 164 164 160 169 174 172 164 164 162 157 155 150 170 154 151 159 155 154 153 152 148 141
320 310 305 299 295 291 280 266 260 260 232 210 203 198 199 205 199 195 190 186 183 185 185 170 171 179 173 172 164 163 165 164 162 160 153 148 162 156 158 154 152 148 143
316 315 317 314 308 302 288 271 261 259 254 215 205 198 198 197 196 193 187 184 187 182 181 178 180 179 177 170 169 168 164 157 146 154 156 151 163 160 158 161 156 152 149
324 324 323 315 311 306 302 287 268 257 246 234 213 203 205 198 197 194 184 181 184 188 185 184 177 170 170 168 163 153 153 149 149 162 171 152 163 155 163 166 166 165 160
324 327 319 320 320 310 316 302 273 271 236 218 218 210 213 206 196 193 181 177 174 175 167 162 161 162 167 166 166 168 159 154 155 156 178 154 159 150 160 180 176 177 174